Overview Statistics Trail Chart Weather Telemetry Raw packets
 

This is the latest recevied weather packets stored in our database for station/object ED3YAB-7. If no packets are shown the sender has not sent any weather packets the latest 10 day(s).

<< 26 27 28 29 30 31 32 >>
Time Temp. Humidity Pressure Rain* Wind** Luminosity Snow
1777542157 22.78° C 37% 1021.5 hPa - - - -
1777540968 20.56° C 39% 1021.4 hPa - - - -
1777540957 20.56° C 39% 1021.4 hPa - - - -
1777539757 21.11° C 38% 1021.2 hPa - - - -
1777538564 21.11° C 40% 1020.9 hPa - - - -
1777538556 21.11° C 40% 1020.9 hPa - - - -
1777537356 20.56° C 41% 1020.9 hPa - - - -
1777536164 20° C 43% 1020.9 hPa - - - -
1777536156 20° C 43% 1020.9 hPa - - - -
1777534963 18.89° C 46% 1020.7 hPa - - - -
1777534956 18.89° C 46% 1020.7 hPa - - - -
1777533756 17.22° C 50% 1020.5 hPa - - - -
1777532556 16.11° C 56% 1020.6 hPa - - - -
1777531363 15.56° C 56% 1020.5 hPa - - - -
1777531356 15.56° C 56% 1020.5 hPa - - - -
1777530167 15.56° C 56% 1020.4 hPa - - - -
1777530155 15.56° C 56% 1020.4 hPa - - - -
1777528964 15° C 58% 1020.4 hPa - - - -
1777528955 15° C 58% 1020.4 hPa - - - -
1777527755 13.89° C 60% 1020.3 hPa - - - -
1777526558 13.89° C 60% 1020.2 hPa - - - -
1777525351 13.89° C 60% 1019.8 hPa - - - -
1777522954 13.89° C 60% 1019.5 hPa - - - -
1777521750 13.33° C 63% 1019.4 hPa - - - -
1777520551 13.33° C 63% 1019.7 hPa - - - -

* Rain since midnight (hover to see other rain measurements)
** Current wind speed in m/s (hover to see current wind gust speed)